[[{"header":{"parameterUnit":"m.s-1","parameterCategory":1,"la1":30.2991,"la2":30.254,"lo1":-89.0895,"lo2":-89.0444,"dy":0.0017,"dx":0.0017,"nx":28,"ny":28,"refTime":"2025-08-28T03:00:00:Z","depth":0,"parameterNumber":2,"parameterNumberName":"U-component_of_WINDS"},"data":[0,0,0,0,0,0,0,0,0,0,0,0,0,0,0,0,0,0,0,0,0,0,0,0,0,0,0,0,0,0,0,0,0,0,0,0,0,0,0,0,0,0,0,0,0,0,0,0,0,0,0,0,0,0,0,0,0,0,-3.2243,-3.2243,0,-3.2208,-3.2207,-3.2207,-3.2068,-3.2065,-3.2062,-3.2059,-3.2027,-3.2029,-3.2031,0,0,0,0,0,0,0,0,0,0,0,0,0,-3.2195,-3.2196,-3.2243,-3.2243,-3.2242,-3.2208,-3.2207,-3.2207,-3.2069,-3.2065,-3.2061,-3.2057,-3.2026,-3.2028,-3.2031,0,0,0,0,0,0,0,0,0,0,0,0,0,-3.2194,-3.2197,-3.2243,-3.2169,-3.2162,-3.2208,-3.2207,-3.2207,-3.207,-3.2065,-3.206,-3.2056,-3.2025,-3.2028,-3.2031,-3.2147,0,0,-3.2041,-3.2042,0,0,0,0,0,0,0,0,-3.2194,-3.2195,-3.2181,-3.2174,-3.2167,-3.2137,-3.2178,-3.2187,-3.2071,-3.2105,-3.2059,-3.2053,-3.2068,-3.2067,-3.2071,-3.2145,-3.2144,-3.2041,-3.2043,-3.2045,-3.2046,0,0,0,0,0,0,0,-3.2194,-3.2196,-3.2229,-3.2181,-3.2172,-3.2139,-3.2133,-3.2179,-3.2114,-3.2102,-3.2091,-3.2089,-3.2063,-3.2068,-3.2069,-3.2144,-3.2041,-3.2044,-3.2046,-3.2047,-3.231,-3.2314,0,0,0,0,0,0,-3.2204,-3.2197,-3.223,-3.2228,-3.2168,-3.2144,-3.2137,-3.2152,-3.2113,-3.2102,-3.2093,-3.2083,-3.2065,-3.2066,-3.2068,-3.2199,-3.2045,-3.2048,-3.2049,-3.2305,-3.2311,-3.2316,0,0,0,0,0,0,-3.2204,-3.2208,-3.2232,-3.221,-3.221,-3.2149,-3.2167,-3.2154,-3.2158,-3.2106,-3.2094,-3.211,-3.2061,-3.2063,-3.2128,-3.2196,-3.2049,-3.2052,-3.2299,-3.2307,-3.2314,-3.2463,0,0,0,0,0,0,-3.2203,-3.2209,-3.2252,-3.2212,-3.2212,-3.2292,-3.2171,-3.2156,-3.2164,-3.215,-3.2119,-3.211,-3.2058,-3.2124,-3.2131,-3.2197,-3.2054,-3.2292,-3.2302,-3.2311,-3.2452,-3.2475,-3.2495,0,0,0,0,0,-3.2202,-3.2296,-3.2254,-3.2259,-3.2264,-3.2296,-3.2296,-3.2233,-3.217,-3.2212,-3.2179,-3.2111,-3.2188,-3.2131,-3.2138,-3.2207,-3.2288,-3.2299,-3.231,-3.2442,-3.247,-3.2494,0,0,0,0,0,0,-3.2347,-3.229,-3.2243,-3.2327,-3.2317,-3.2272,-3.2324,-3.2266,-3.2274,-3.2261,-3.2184,-3.2179,-3.2254,-3.2237,-3.2176,-3.2316,-3.2226,-3.2239,-3.2324,-3.235,-3.2371,-3.2373,-3.2057,0,0,0,0,0,-3.2389,-3.2419,-3.2368,-3.2447,-3.2444,-3.2386,-3.2397,-3.235,-3.2337,-3.2333,-3.2304,-3.2295,-3.2317,-3.2333,-3.235,-3.2449,-3.244,-3.25,-3.2522,-3.2539,-3.2551,-3.2601,-3.2627,-3.2354,-3.2354,-3.2353,0,0,-3.2476,-3.2448,-3.2472,-3.2476,-3.2462,-3.2496,-3.2383,-3.2423,-3.2447,-3.2339,-3.2397,-3.2376,-3.2361,-3.2443,-3.2478,-3.2432,-3.2625,-3.2554,-3.2569,-3.2571,-3.2616,-3.2641,-3.2665,-3.2361,-3.236,-3.2359,0,0,-3.2651,-3.2633,-3.2696,-3.2685,-3.2666,-3.2626,-3.2642,-3.2606,-3.2587,-3.2644,-3.2563,-3.2591,-3.2631,-3.2623,-3.2625,-3.2797,-3.2734,-3.2805,-3.2916,-3.2966,-3.2987,-3.3006,-3.3066,-3.3088,-3.2818,-3.2818,-3.2818,0,-3.2761,-3.2806,-3.2737,-3.2782,-3.2786,-3.2688,-3.2752,-3.2745,-3.2734,-3.2739,-3.2687,-3.2734,-3.2717,-3.2795,-3.2837,-3.2842,-3.2857,-3.2807,-3.299,-3.3008,-3.3024,-3.308,-3.3103,-3.2827,-3.2826,-3.2825,-3.2824,0,-3.2943,-3.2976,-3.303,-3.3018,-3.3029,-3.3083,-3.3023,-3.3042,-3.2994,-3.296,-3.3019,-3.2996,-3.3006,-3.3022,-3.2976,-3.3094,-3.3065,-3.3003,-3.2911,-3.306,-3.3111,-3.3132,-3.2839,-3.2836,-3.2833,-3.2831,0,0,-3.3207,-3.3156,-3.3177,-3.317,-3.3142,-3.3166,-3.3217,-3.3226,-3.3243,-3.3239,-3.3279,-3.3315,-3.3257,-3.3258,-3.3211,-3.3255,-3.3391,-3.3187,-3.3186,-3.3224,-3.3517,-3.3563,-3.3589,-3.335,-3.3354,-3.3357,-3.3518,0,-3.3371,-3.3452,-3.3391,-3.3483,-3.3512,-3.342,-3.3464,-3.3452,-3.3423,-3.3444,-3.3411,-3.3437,-3.3359,-3.336,-3.3399,-3.3366,-3.3449,-3.3354,-3.3386,-3.3388,-3.339,-3.3616,-3.3664,-3.3816,-3.3538,-3.3541,-3.3544,0,-3.3574,-3.3576,-3.3671,-3.3635,-3.3645,-3.3685,-3.3687,-3.3709,-3.3694,-3.3669,-3.3672,-3.3613,-3.366,-3.3572,-3.3636,-3.3573,-3.3583,-3.3569,-3.3574,-3.3572,-3.3473,-3.3619,-3.3864,-3.3886,-3.3575,-3.3572,-3.357,0,-3.3754,-3.3782,-3.3841,-3.3839,-3.3799,-3.3829,-3.3815,-3.3795,-3.3804,-3.3807,-3.3812,-3.3822,-3.3827,-3.3836,-3.3782,-3.3722,-3.3853,-3.376,-3.3833,-3.3835,-3.3863,-3.3862,-3.4111,-3.3874,-3.3874,-3.3873,-3.3873,0,-3.3943,-3.4004,-3.3921,-3.3958,-3.4023,-3.3954,-3.4021,-3.3997,-3.398,-3.4011,-3.3934,-3.3965,-3.3892,-3.3916,-3.3875,-3.3934,-3.3937,-3.3918,-3.3906,-3.3924,-3.3926,-3.3927,-3.3915,-3.3879,-3.3878,-3.3877,-3.3876,0,-3.4154,-3.4102,-3.416,-3.4117,-3.4108,-3.4159,-3.4123,-3.4155,-3.412,-3.416,-3.4166,-3.4112,-3.4136,-3.4083,-3.4101,-3.4072,-3.4155,-3.4128,-3.416,-3.4151,-3.4226,-3.4219,-3.4484,-3.4514,-3.4261,-3.4263,-3.4265,0,-3.4276,-3.4321,-3.4283,-3.4297,-3.4286,-3.431,-3.4318,-3.4252,-3.4264,-3.425,-3.4284,-3.4302,-3.4311,-3.4355,-3.4317,-3.433,-3.4301,-3.4393,-3.4302,-3.4318,-3.4299,-3.4296,-3.43,-3.4411,-3.4414,-3.4416,-3.4418,0,-3.4499,-3.447,-3.4483,-3.4488,-3.45,-3.4501,-3.4497,-3.4513,-3.4443,-3.4461,-3.4483,-3.4491,-3.4508,-3.4525,-3.453,-3.4516,-3.4456,-3.4448,-3.4465,-3.4482,-3.4497,-3.4488,-3.4208,-3.4441,-3.4439,-3.4437,-3.4436,-3.4435,-3.4667,-3.4701,-3.4679,-3.4697,-3.4687,-3.4685,-3.4712,-3.4681,-3.4698,-3.4704,-3.4666,-3.4697,-3.4681,-3.468,-3.4672,-3.4696,-3.4655,-3.4681,-3.4687,-3.4693,-3.4704,-3.4496,-3.4698,-3.4697,-3.4696,-3.4696,-3.4695,0,-3.4883,-3.4864,-3.4881,-3.4876,-3.4891,-3.4832,-3.4825,-3.4841,-3.4868,-3.4858,-3.4869,-3.4895,-3.4912,-3.4877,-3.4888,-3.4914,-3.4887,-3.492,-3.4916,-3.4913,-3.4742,-3.4725,-3.4941,-3.4941,-3.4941,-3.4941,-3.4941,-3.4941,-3.4996,-3.505,-3.502,-3.5069,-3.505,-3.5078,-3.5078,-3.5076,-3.5067,-3.5099,-3.5112,-3.5089,-3.5068,-3.5078,-3.5091,-3.5081,-3.5088,-3.5129,-3.5109,-3.4949,-3.4925,-3.4902,-3.4885,-3.5132,-3.5132,-3.5277,-3.5279,-3.528]},{"header":{"parameterUnit":"m.s-1","parameterCategory":1,"la1":30.2991,"la2":30.254,"lo1":-89.0895,"lo2":-89.0444,"dy":0.0017,"dx":0.0017,"nx":28,"ny":28,"refTime":"2025-08-28T03:00:00:Z","depth":0,"parameterNumber":3,"parameterNumberName":"V-component_of_WINDS"},"data":[0,0,0,0,0,0,0,0,0,0,0,0,0,0,0,0,0,0,0,0,0,0,0,0,0,0,0,0,0,0,0,0,0,0,0,0,0,0,0,0,0,0,0,0,0,0,0,0,0,0,0,0,0,0,0,0,0,0,-2.1404,-2.1404,0,-2.1342,-2.1341,-2.134,-2.1326,-2.1326,-2.1327,-2.1327,-2.1258,-2.1255,-2.1253,0,0,0,0,0,0,0,0,0,0,0,0,0,-2.1506,-2.1504,-2.1404,-2.1404,-2.1403,-2.1342,-2.1341,-2.134,-2.1326,-2.1326,-2.1327,-2.1327,-2.1258,-2.1256,-2.1253,0,0,0,0,0,0,0,0,0,0,0,0,0,-2.1454,-2.1503,-2.1405,-2.1389,-2.1386,-2.1342,-2.1341,-2.134,-2.1326,-2.1326,-2.1327,-2.1328,-2.1259,-2.1256,-2.1253,-2.1218,0,0,-2.1242,-2.1241,0,0,0,0,0,0,0,0,-2.1457,-2.145,-2.1392,-2.139,-2.1387,-2.1342,-2.1351,-2.1299,-2.1325,-2.1349,-2.1327,-2.1328,-2.1285,-2.1279,-2.1266,-2.1215,-2.1212,-2.1242,-2.124,-2.1238,-2.1237,0,0,0,0,0,0,0,-2.1461,-2.1453,-2.1379,-2.1391,-2.1388,-2.1382,-2.1376,-2.1341,-2.1313,-2.1347,-2.1345,-2.1338,-2.1284,-2.1269,-2.1264,-2.1211,-2.1242,-2.1239,-2.1237,-2.1236,-2.1125,-2.1124,0,0,0,0,0,0,-2.1468,-2.1456,-2.1381,-2.1378,-2.1425,-2.138,-2.1373,-2.1356,-2.1314,-2.1308,-2.1338,-2.1338,-2.1275,-2.1268,-2.1262,-2.1216,-2.1238,-2.1235,-2.1233,-2.1126,-2.1125,-2.1124,0,0,0,0,0,0,-2.147,-2.1461,-2.1384,-2.1416,-2.1406,-2.1378,-2.1359,-2.1354,-2.134,-2.1308,-2.1302,-2.1329,-2.1275,-2.1267,-2.1229,-2.1214,-2.1234,-2.1231,-2.1127,-2.1126,-2.1125,-2.1127,0,0,0,0,0,0,-2.1473,-2.1462,-2.145,-2.1416,-2.1405,-2.1354,-2.1358,-2.1353,-2.1335,-2.1334,-2.1297,-2.1292,-2.1275,-2.1234,-2.1225,-2.121,-2.1228,-2.1128,-2.1127,-2.1125,-2.1128,-2.1126,-2.1124,0,0,0,0,0,-2.1477,-2.1453,-2.145,-2.1441,-2.1389,-2.1353,-2.1346,-2.1329,-2.1334,-2.132,-2.1299,-2.1293,-2.1218,-2.123,-2.1221,-2.1203,-2.1129,-2.1127,-2.1125,-2.1129,-2.1126,-2.1124,0,0,0,0,0,0,-2.1484,-2.1448,-2.1444,-2.1409,-2.1384,-2.1351,-2.1333,-2.1327,-2.1299,-2.1299,-2.1278,-2.1269,-2.1232,-2.1214,-2.1229,-2.1167,-2.1173,-2.1169,-2.1179,-2.1177,-2.1175,-2.1179,-2.1225,0,0,0,0,0,-2.1482,-2.1457,-2.1427,-2.1398,-2.1386,-2.1362,-2.1346,-2.1335,-2.1307,-2.1296,-2.1272,-2.1245,-2.1214,-2.1195,-2.1166,-2.1126,-2.1116,-2.1109,-2.1108,-2.1106,-2.1102,-2.1077,-2.1073,-2.1118,-2.1118,-2.1118,0,0,-2.1476,-2.1454,-2.1439,-2.1399,-2.1379,-2.1351,-2.1353,-2.1325,-2.1304,-2.1291,-2.1254,-2.1236,-2.1203,-2.1164,-2.1145,-2.1148,-2.1088,-2.1104,-2.1103,-2.1099,-2.1075,-2.107,-2.1067,-2.1116,-2.1117,-2.1117,0,0,-2.1452,-2.1434,-2.1407,-2.1387,-2.1356,-2.134,-2.1334,-2.1301,-2.1289,-2.1252,-2.1241,-2.1215,-2.1164,-2.1141,-2.1122,-2.1089,-2.1081,-2.108,-2.1068,-2.1044,-2.1041,-2.1037,-2.1022,-2.1018,-2.1076,-2.1076,-2.1076,0,-2.1448,-2.1409,-2.1394,-2.1366,-2.1347,-2.1337,-2.1308,-2.1289,-2.1249,-2.1236,-2.124,-2.1175,-2.1152,-2.1106,-2.1098,-2.1084,-2.1074,-2.1083,-2.1043,-2.1039,-2.1036,-2.1021,-2.1016,-2.1076,-2.1076,-2.1076,-2.1076,0,-2.1405,-2.1377,-2.1359,-2.1323,-2.1303,-2.1275,-2.1253,-2.1234,-2.1225,-2.1208,-2.1168,-2.1141,-2.1105,-2.1094,-2.1084,-2.1045,-2.1048,-2.1048,-2.1053,-2.1032,-2.1018,-2.1012,-2.1076,-2.1076,-2.1076,-2.1076,0,0,-2.1382,-2.1338,-2.1332,-2.1314,-2.128,-2.1257,-2.1227,-2.1194,-2.1176,-2.115,-2.1122,-2.108,-2.1079,-2.1058,-2.1045,-2.1025,-2.0996,-2.1027,-2.1026,-2.102,-2.0949,-2.0947,-2.0941,-2.0992,-2.0991,-2.099,-2.0951,0,-2.1352,-2.13,-2.1286,-2.1241,-2.1214,-2.1204,-2.1177,-2.1152,-2.1135,-2.1108,-2.1089,-2.1058,-2.1061,-2.1047,-2.1027,-2.1004,-2.0981,-2.1007,-2.0963,-2.0962,-2.0969,-2.0934,-2.0933,-2.0897,-2.0945,-2.0944,-2.0944,0,-2.1309,-2.1283,-2.1236,-2.1204,-2.1192,-2.1169,-2.1136,-2.1111,-2.1081,-2.107,-2.1046,-2.1036,-2.1002,-2.1011,-2.0963,-2.098,-2.0962,-2.0948,-2.0946,-2.0939,-2.095,-2.0924,-2.0885,-2.0879,-2.0936,-2.0936,-2.0937,0,-2.1294,-2.1247,-2.1213,-2.1198,-2.116,-2.1144,-2.1127,-2.1098,-2.1078,-2.1049,-2.1035,-2.1002,-2.0983,-2.0956,-2.0935,-2.0945,-2.0887,-2.0896,-2.0875,-2.0875,-2.0861,-2.0861,-2.0816,-2.0854,-2.0854,-2.0854,-2.0854,0,-2.126,-2.1232,-2.1205,-2.1184,-2.115,-2.1133,-2.1099,-2.1081,-2.1056,-2.1028,-2.1018,-2.0992,-2.0968,-2.0938,-2.0922,-2.0882,-2.0874,-2.0862,-2.0858,-2.0862,-2.0863,-2.0847,-2.0848,-2.0852,-2.0853,-2.0853,-2.0853,0,-2.1237,-2.1219,-2.118,-2.1148,-2.1138,-2.1115,-2.1086,-2.1063,-2.1046,-2.1012,-2.1003,-2.0975,-2.0939,-2.0917,-2.0872,-2.0861,-2.0816,-2.0814,-2.0826,-2.0824,-2.0802,-2.0803,-2.0743,-2.0732,-2.078,-2.078,-2.0779,0,-2.1216,-2.1193,-2.1159,-2.114,-2.1124,-2.1095,-2.1074,-2.1056,-2.1035,-2.0999,-2.098,-2.0944,-2.0914,-2.0857,-2.0832,-2.0796,-2.0791,-2.0772,-2.0785,-2.0789,-2.0787,-2.0787,-2.0783,-2.0769,-2.0769,-2.0768,-2.0768,0,-2.1178,-2.117,-2.1143,-2.1111,-2.1088,-2.1062,-2.1036,-2.1021,-2.0997,-2.0974,-2.0938,-2.0915,-2.0869,-2.0832,-2.0794,-2.0774,-2.0766,-2.0765,-2.0757,-2.0759,-2.0766,-2.0759,-2.0817,-2.0765,-2.0766,-2.0766,-2.0766,-2.0766,-2.1153,-2.1132,-2.1104,-2.1073,-2.1052,-2.1027,-2.1004,-2.0984,-2.0954,-2.0916,-2.0907,-2.0869,-2.0837,-2.0786,-2.0765,-2.0733,-2.0735,-2.0725,-2.0722,-2.0719,-2.0717,-2.0774,-2.0726,-2.0726,-2.0727,-2.0727,-2.0727,0,-2.1113,-2.1094,-2.1066,-2.103,-2.1005,-2.1002,-2.0973,-2.0951,-2.0918,-2.0891,-2.0862,-2.0819,-2.0783,-2.0755,-2.0717,-2.0697,-2.0692,-2.0687,-2.0687,-2.0682,-2.0719,-2.0728,-2.0692,-2.0692,-2.0692,-2.0692,-2.0692,-2.0692,-2.1089,-2.1052,-2.104,-2.0992,-2.0973,-2.0936,-2.0919,-2.0896,-2.0873,-2.0827,-2.0798,-2.078,-2.0751,-2.0711,-2.0677,-2.067,-2.0655,-2.065,-2.0642,-2.0676,-2.068,-2.0683,-2.0691,-2.0648,-2.0648,-2.0607,-2.0606,-2.0606]}]]